Time,TemperatureF,DewpointF,PressureIn,WindDirection,WindDirectionDegrees,WindSpeedMPH,WindSpeedGustMPH,Humidity,HourlyPrecipIn,Conditions,Clouds,dailyrainin,SoftwareType,DateUTC
2013-02-17 00:00:00,-12.7,-16.1,30.15,West,281,0.0,0.0,84,0.00,,SKC,0.00,VWS V14.01,2013-02-17 06:00:00,
2013-02-17 00:01:00,-11.0,-14.2,30.14,West,281,0.0,0.0,85,0.00,,SKC,0.00,VWS V14.01,2013-02-17 06:01:00,
2013-02-17 00:05:00,-12.9,-16.4,30.15,West,281,0.0,0.0,84,0.00,,SKC,0.00,VWS V14.01,2013-02-17 06:05:00,
2013-02-17 00:06:00,-11.0,-14.2,30.14,West,281,0.0,0.0,85,0.00,,SKC,0.00,VWS V14.01,2013-02-17 06:06:00,
2013-02-17 00:10:00,-13.0,-16.4,30.15,West,281,0.0,0.0,84,0.00,,SKC,0.00,VWS V14.01,2013-02-17 06:10:00,
2013-02-17 00:11:00,-11.1,-14.3,30.14,West,281,0.0,0.0,85,0.00,,SKC,0.00,VWS V14.01,2013-02-17 06:11:00,
2013-02-17 00:15:00,-13.2,-16.6,30.15,West,281,0.0,0.0,84,0.00,,SKC,0.00,VWS V14.01,2013-02-17 06:15:00,
2013-02-17 00:16:00,-11.3,-14.5,30.14,West,281,0.0,0.0,85,0.00,,SKC,0.00,VWS V14.01,2013-02-17 06:16:00,
2013-02-17 00:20:00,-13.3,-16.7,30.15,West,281,0.0,0.0,84,0.00,,SKC,0.00,VWS V14.01,2013-02-17 06:20:00,
2013-02-17 00:21:00,-11.3,-14.5,30.14,West,281,0.0,0.0,85,0.00,,SKC,0.00,VWS V14.01,2013-02-17 06:21:00,
2013-02-17 00:25:00,-13.4,-16.8,30.15,West,281,0.0,0.0,84,0.00,,SKC,0.00,VWS V14.01,2013-02-17 06:25:00,
2013-02-17 00:26:00,-11.5,-14.7,30.14,West,281,0.0,0.0,85,0.00,,SKC,0.00,VWS V14.01,2013-02-17 06:26:00,
2013-02-17 00:30:00,-13.5,-16.9,30.15,West,281,0.0,0.0,84,0.00,,SKC,0.00,VWS V14.01,2013-02-17 06:30:00,
2013-02-17 00:31:00,-11.8,-15.3,30.15,West,281,0.0,0.0,84,0.00,,SKC,0.00,VWS V14.01,2013-02-17 06:31:00,
2013-02-17 00:35:00,-13.7,-17.1,30.15,West,281,0.0,0.0,84,0.00,,SKC,0.00,VWS V14.01,2013-02-17 06:35:00,
2013-02-17 00:36:00,-12.1,-15.6,30.15,West,281,0.0,0.0,84,0.00,,SKC,0.00,VWS V14.01,2013-02-17 06:36:00,
2013-02-17 00:40:00,-13.7,-17.1,30.15,West,281,0.0,0.0,84,0.00,,SKC,0.00,VWS V14.01,2013-02-17 06:40:00,
2013-02-17 00:41:00,-12.0,-15.5,30.15,West,281,0.0,0.0,84,0.00,,SKC,0.00,VWS V14.01,2013-02-17 06:41:00,
2013-02-17 00:45:00,-13.9,-17.3,30.15,West,281,0.0,0.0,84,0.00,,SKC,0.00,VWS V14.01,2013-02-17 06:45:00,
2013-02-17 00:46:00,-12.1,-15.3,30.15,West,281,0.0,0.0,85,0.00,,SKC,0.00,VWS V14.01,2013-02-17 06:46:00,
2013-02-17 00:50:00,-14.1,-17.5,30.15,West,281,0.0,0.0,84,0.00,,SKC,0.00,VWS V14.01,2013-02-17 06:50:00,
2013-02-17 00:51:00,-12.3,-15.5,30.15,West,281,0.0,0.0,85,0.00,,SKC,0.00,VWS V14.01,2013-02-17 06:51:00,
2013-02-17 00:55:00,-14.2,-17.6,30.15,West,281,0.0,0.0,84,0.00,,SKC,0.00,VWS V14.01,2013-02-17 06:55:00,
2013-02-17 00:56:00,-12.5,-15.9,30.15,West,281,0.0,0.0,84,0.00,,SKC,0.00,VWS V14.01,2013-02-17 06:56:00,
2013-02-17 01:00:00,-14.3,-17.7,30.15,West,281,0.0,0.0,84,0.00,,SKC,0.00,VWS V14.01,2013-02-17 07:00:00,
2013-02-17 01:01:00,-12.7,-16.1,30.15,West,281,0.0,0.0,84,0.00,,SKC,0.00,VWS V14.01,2013-02-17 07:01:00,
2013-02-17 01:05:00,-14.3,-17.7,30.15,West,281,0.0,0.0,84,0.00,,SKC,0.00,VWS V14.01,2013-02-17 07:05:00,
2013-02-17 01:06:00,-12.9,-16.4,30.15,West,281,0.0,0.0,84,0.00,,SKC,0.00,VWS V14.01,2013-02-17 07:06:00,
2013-02-17 01:10:00,-14.5,-17.9,30.15,West,281,0.0,0.0,84,0.00,,SKC,0.00,VWS V14.01,2013-02-17 07:10:00,
2013-02-17 01:11:00,-13.0,-16.4,30.15,West,281,0.0,0.0,84,0.00,,SKC,0.00,VWS V14.01,2013-02-17 07:11:00,
2013-02-17 01:15:00,-14.7,-18.1,30.15,West,281,0.0,0.0,84,0.00,,SKC,0.00,VWS V14.01,2013-02-17 07:15:00,
2013-02-17 01:16:00,-13.2,-16.6,30.15,West,281,0.0,0.0,84,0.00,,SKC,0.00,VWS V14.01,2013-02-17 07:16:00,
2013-02-17 01:20:00,-14.9,-18.5,30.15,West,281,0.0,0.0,83,0.00,,SKC,0.00,VWS V14.01,2013-02-17 07:20:00,
2013-02-17 01:21:00,-13.3,-16.7,30.15,West,281,0.0,0.0,84,0.00,,SKC,0.00,VWS V14.01,2013-02-17 07:21:00,
2013-02-17 01:25:00,-14.7,-18.1,30.15,West,281,0.0,0.0,84,0.00,,SKC,0.00,VWS V14.01,2013-02-17 07:25:00,
2013-02-17 01:26:00,-13.4,-16.8,30.15,West,281,0.0,0.0,84,0.00,,SKC,0.00,VWS V14.01,2013-02-17 07:26:00,
2013-02-17 01:30:00,-14.7,-17.9,30.15,West,281,0.0,0.0,85,0.00,,SKC,0.00,VWS V14.01,2013-02-17 07:30:00,
2013-02-17 01:31:00,-13.5,-16.9,30.15,West,281,0.0,0.0,84,0.00,,SKC,0.00,VWS V14.01,2013-02-17 07:31:00,
2013-02-17 01:35:00,-14.9,-18.1,30.15,West,281,0.0,0.0,85,0.00,,SKC,0.00,VWS V14.01,2013-02-17 07:35:00,
2013-02-17 01:36:00,-13.6,-17.0,30.15,West,281,0.0,0.0,84,0.00,,SKC,0.00,VWS V14.01,2013-02-17 07:36:00,
2013-02-17 01:40:00,-15.0,-18.4,30.15,West,281,0.0,0.0,84,0.00,,SKC,0.00,VWS V14.01,2013-02-17 07:40:00,
2013-02-17 01:42:00,-13.7,-17.1,30.15,West,281,0.0,0.0,84,0.00,,SKC,0.00,VWS V14.01,2013-02-17 07:42:00,
2013-02-17 01:45:00,-15.1,-18.5,30.15,West,281,0.0,0.0,84,0.00,,SKC,0.00,VWS V14.01,2013-02-17 07:45:00,
2013-02-17 01:47:00,-13.9,-17.3,30.15,West,281,0.0,0.0,84,0.00,,SKC,0.00,VWS V14.01,2013-02-17 07:47:00,
2013-02-17 01:50:00,-15.1,-18.5,30.15,West,281,0.0,0.0,84,0.00,,SKC,0.00,VWS V14.01,2013-02-17 07:50:00,
2013-02-17 01:52:00,-14.0,-17.4,30.15,West,281,0.0,0.0,84,0.00,,SKC,0.00,VWS V14.01,2013-02-17 07:52:00,
2013-02-17 01:57:00,-14.1,-17.5,30.15,West,281,0.0,0.0,84,0.00,,SKC,0.00,VWS V14.01,2013-02-17 07:57:00,
2013-02-17 02:00:00,-15.3,-18.7,30.15,West,281,0.0,0.0,84,0.00,,SKC,0.00,VWS V14.01,2013-02-17 08:00:00,
2013-02-17 02:02:00,-14.3,-17.7,30.15,West,281,0.0,0.0,84,0.00,,SKC,0.00,VWS V14.01,2013-02-17 08:02:00,
2013-02-17 02:05:00,-15.4,-19.0,30.15,West,281,0.0,0.0,83,0.00,,SKC,0.00,VWS V14.01,2013-02-17 08:05:00,
2013-02-17 02:07:00,-14.3,-17.7,30.15,West,281,0.0,0.0,84,0.00,,SKC,0.00,VWS V14.01,2013-02-17 08:07:00,
2013-02-17 02:10:00,-15.7,-19.3,30.15,West,281,0.0,0.0,83,0.00,,SKC,0.00,VWS V14.01,2013-02-17 08:10:00,
2013-02-17 02:12:00,-14.5,-17.9,30.15,West,281,0.0,0.0,84,0.00,,SKC,0.00,VWS V14.01,2013-02-17 08:12:00,
2013-02-17 02:15:00,-15.9,-19.5,30.15,West,281,0.0,0.0,83,0.00,,SKC,0.00,VWS V14.01,2013-02-17 08:15:00,
2013-02-17 02:17:00,-14.7,-18.1,30.15,West,281,0.0,0.0,84,0.00,,SKC,0.00,VWS V14.01,2013-02-17 08:17:00,
2013-02-17 02:20:00,-16.1,-20.0,30.15,West,281,0.0,0.0,82,0.00,,SKC,0.00,VWS V14.01,2013-02-17 08:20:00,
2013-02-17 02:22:00,-14.9,-18.5,30.15,West,281,0.0,0.0,83,0.00,,SKC,0.00,VWS V14.01,2013-02-17 08:22:00,
2013-02-17 02:25:00,-16.2,-20.0,30.15,West,281,0.0,0.0,82,0.00,,SKC,0.00,VWS V14.01,2013-02-17 08:25:00,
2013-02-17 02:27:00,-14.7,-18.1,30.15,West,281,0.0,0.0,84,0.00,,SKC,0.00,VWS V14.01,2013-02-17 08:27:00,
2013-02-17 02:30:00,-16.2,-19.8,30.15,West,281,0.0,0.0,83,0.00,,SKC,0.00,VWS V14.01,2013-02-17 08:30:00,
2013-02-17 02:32:00,-14.7,-17.9,30.15,West,281,0.0,0.0,85,0.00,,SKC,0.00,VWS V14.01,2013-02-17 08:32:00,
2013-02-17 02:35:00,-16.0,-19.4,30.15,West,281,0.0,0.0,84,0.00,,SKC,0.00,VWS V14.01,2013-02-17 08:35:00,
2013-02-17 02:37:00,-14.9,-18.1,30.15,West,281,0.0,0.0,85,0.00,,SKC,0.00,VWS V14.01,2013-02-17 08:37:00,
2013-02-17 02:40:00,-16.0,-19.4,30.15,West,281,0.0,0.0,84,0.00,,SKC,0.00,VWS V14.01,2013-02-17 08:40:00,
2013-02-17 02:42:00,-15.0,-18.4,30.15,West,281,0.0,0.0,84,0.00,,SKC,0.00,VWS V14.01,2013-02-17 08:42:00,
2013-02-17 02:45:00,-16.1,-19.5,30.14,West,281,0.0,0.0,84,0.00,,SKC,0.00,VWS V14.01,2013-02-17 08:45:00,
2013-02-17 02:47:00,-15.1,-18.5,30.15,West,281,0.0,0.0,84,0.00,,SKC,0.00,VWS V14.01,2013-02-17 08:47:00,
2013-02-17 02:50:00,-16.2,-19.8,30.14,West,281,0.0,0.0,83,0.00,,SKC,0.00,VWS V14.01,2013-02-17 08:50:00,
2013-02-17 02:52:00,-15.1,-18.5,30.15,West,281,0.0,0.0,84,0.00,,SKC,0.00,VWS V14.01,2013-02-17 08:52:00,
2013-02-17 02:55:00,-16.3,-19.9,30.14,West,281,0.0,0.0,83,0.00,,SKC,0.00,VWS V14.01,2013-02-17 08:55:00,
2013-02-17 02:57:00,-15.2,-18.6,30.15,West,281,0.0,0.0,84,0.00,,SKC,0.00,VWS V14.01,2013-02-17 08:57:00,
2013-02-17 03:00:00,-16.5,-20.1,30.14,West,281,0.0,0.0,83,0.00,,SKC,0.00,VWS V14.01,2013-02-17 09:00:00,
2013-02-17 03:02:00,-15.3,-18.7,30.15,West,281,0.0,0.0,84,0.00,,SKC,0.00,VWS V14.01,2013-02-17 09:02:00,
2013-02-17 03:05:00,-16.5,-20.1,30.14,West,281,0.0,0.0,83,0.00,,SKC,0.00,VWS V14.01,2013-02-17 09:05:00,
2013-02-17 03:07:00,-15.4,-19.0,30.15,West,281,0.0,0.0,83,0.00,,SKC,0.00,VWS V14.01,2013-02-17 09:07:00,
2013-02-17 03:10:00,-16.5,-20.1,30.14,West,281,0.0,0.0,83,0.00,,SKC,0.00,VWS V14.01,2013-02-17 09:10:00,
2013-02-17 03:12:00,-15.7,-19.3,30.15,West,281,0.0,0.0,83,0.00,,SKC,0.00,VWS V14.01,2013-02-17 09:12:00,
2013-02-17 03:15:00,-16.6,-20.2,30.15,West,281,0.0,0.0,83,0.00,,SKC,0.00,VWS V14.01,2013-02-17 09:15:00,
2013-02-17 03:17:00,-15.9,-19.8,30.15,West,281,0.0,0.0,82,0.00,,SKC,0.00,VWS V14.01,2013-02-17 09:17:00,
2013-02-17 03:20:00,-16.6,-20.2,30.15,West,281,0.0,0.0,83,0.00,,SKC,0.00,VWS V14.01,2013-02-17 09:20:00,
2013-02-17 03:22:00,-16.1,-20.0,30.15,West,281,0.0,0.0,82,0.00,,SKC,0.00,VWS V14.01,2013-02-17 09:22:00,
2013-02-17 03:25:00,-16.5,-20.1,30.15,West,281,0.0,0.0,83,0.00,,SKC,0.00,VWS V14.01,2013-02-17 09:25:00,
2013-02-17 03:27:00,-16.2,-20.0,30.15,West,281,0.0,0.0,82,0.00,,SKC,0.00,VWS V14.01,2013-02-17 09:27:00,
2013-02-17 03:30:00,-16.2,-19.6,30.15,West,281,0.0,0.0,84,0.00,,SKC,0.00,VWS V14.01,2013-02-17 09:30:00,
2013-02-17 03:32:00,-16.2,-19.8,30.15,West,281,0.0,0.0,83,0.00,,SKC,0.00,VWS V14.01,2013-02-17 09:32:00,
2013-02-17 03:35:00,-16.3,-19.9,30.15,West,281,0.0,0.0,83,0.00,,SKC,0.00,VWS V14.01,2013-02-17 09:35:00,
2013-02-17 03:37:00,-16.0,-19.4,30.15,West,281,0.0,0.0,84,0.00,,SKC,0.00,VWS V14.01,2013-02-17 09:37:00,
2013-02-17 03:40:00,-16.5,-20.1,30.15,West,281,0.0,0.0,83,0.00,,SKC,0.00,VWS V14.01,2013-02-17 09:40:00,
2013-02-17 03:42:00,-16.0,-19.4,30.15,West,281,0.0,0.0,84,0.00,,SKC,0.00,VWS V14.01,2013-02-17 09:42:00,
2013-02-17 03:45:00,-16.6,-20.4,30.14,West,281,0.0,0.0,82,0.00,,SKC,0.00,VWS V14.01,2013-02-17 09:45:00,
2013-02-17 03:47:00,-16.1,-19.5,30.14,West,281,0.0,0.0,84,0.00,,SKC,0.00,VWS V14.01,2013-02-17 09:47:00,
2013-02-17 03:50:00,-16.3,-19.7,30.14,West,281,0.0,0.0,84,0.00,,SKC,0.00,VWS V14.01,2013-02-17 09:50:00,
2013-02-17 03:52:00,-16.2,-19.8,30.14,West,281,0.0,0.0,83,0.00,,SKC,0.00,VWS V14.01,2013-02-17 09:52:00,
2013-02-17 03:55:00,-16.3,-19.7,30.14,West,281,0.0,0.0,84,0.00,,SKC,0.00,VWS V14.01,2013-02-17 09:55:00,
2013-02-17 03:57:00,-16.3,-19.9,30.14,West,281,0.0,0.0,83,0.00,,SKC,0.00,VWS V14.01,2013-02-17 09:57:00,
2013-02-17 04:00:00,-16.3,-19.7,30.15,West,281,0.0,0.0,84,0.00,,SKC,0.00,VWS V14.01,2013-02-17 10:00:00,
2013-02-17 04:02:00,-16.5,-20.1,30.14,West,281,0.0,0.0,83,0.00,,SKC,0.00,VWS V14.01,2013-02-17 10:02:00,
2013-02-17 04:05:00,-15.9,-19.3,30.15,West,281,0.0,0.0,84,0.00,,SKC,0.00,VWS V14.01,2013-02-17 10:05:00,
2013-02-17 04:07:00,-16.5,-20.1,30.14,West,281,0.0,0.0,83,0.00,,SKC,0.00,VWS V14.01,2013-02-17 10:07:00,
2013-02-17 04:10:00,-16.0,-19.4,30.15,West,281,0.0,0.0,84,0.00,,SKC,0.00,VWS V14.01,2013-02-17 10:10:00,
2013-02-17 04:12:00,-16.5,-20.1,30.14,West,281,0.0,0.0,83,0.00,,SKC,0.00,VWS V14.01,2013-02-17 10:12:00,
2013-02-17 04:15:00,-16.2,-19.6,30.14,West,281,0.0,0.0,84,0.00,,SKC,0.00,VWS V14.01,2013-02-17 10:15:00,
2013-02-17 04:17:00,-16.6,-20.2,30.15,West,281,0.0,0.0,83,0.00,,SKC,0.00,VWS V14.01,2013-02-17 10:17:00,
2013-02-17 04:20:00,-16.5,-20.1,30.14,West,281,0.0,0.0,83,0.00,,SKC,0.00,VWS V14.01,2013-02-17 10:20:00,
2013-02-17 04:22:00,-16.6,-20.2,30.15,West,281,0.0,0.0,83,0.00,,SKC,0.00,VWS V14.01,2013-02-17 10:22:00,
2013-02-17 04:25:00,-16.6,-20.2,30.14,West,281,0.0,0.0,83,0.00,,SKC,0.00,VWS V14.01,2013-02-17 10:25:00,
2013-02-17 04:27:00,-16.5,-20.1,30.15,West,281,0.0,0.0,83,0.00,,SKC,0.00,VWS V14.01,2013-02-17 10:27:00,
2013-02-17 04:30:00,-16.7,-20.3,30.15,West,281,0.0,0.0,83,0.00,,SKC,0.00,VWS V14.01,2013-02-17 10:30:00,
2013-02-17 04:33:00,-16.2,-19.6,30.15,West,281,0.0,0.0,84,0.00,,SKC,0.00,VWS V14.01,2013-02-17 10:33:00,
2013-02-17 04:35:00,-16.8,-20.4,30.15,West,281,0.0,0.0,83,0.00,,SKC,0.00,VWS V14.01,2013-02-17 10:35:00,
2013-02-17 04:38:00,-16.3,-19.9,30.15,West,281,0.0,0.0,83,0.00,,SKC,0.00,VWS V14.01,2013-02-17 10:38:00,
2013-02-17 04:40:00,-16.8,-20.4,30.15,West,281,0.0,0.0,83,0.00,,SKC,0.00,VWS V14.01,2013-02-17 10:40:00,
2013-02-17 04:43:00,-16.6,-20.4,30.15,West,281,0.0,0.0,82,0.00,,SKC,0.00,VWS V14.01,2013-02-17 10:43:00,
2013-02-17 04:45:00,-16.8,-20.4,30.14,West,281,0.0,0.0,83,0.00,,SKC,0.00,VWS V14.01,2013-02-17 10:45:00,
2013-02-17 04:48:00,-16.5,-20.1,30.14,West,281,0.0,0.0,83,0.00,,SKC,0.00,VWS V14.01,2013-02-17 10:48:00,
2013-02-17 04:50:00,-17.0,-20.6,30.14,West,281,0.0,0.0,83,0.00,,SKC,0.00,VWS V14.01,2013-02-17 10:50:00,
2013-02-17 04:53:00,-16.3,-19.7,30.14,West,281,0.0,0.0,84,0.00,,SKC,0.00,VWS V14.01,2013-02-17 10:53:00,
2013-02-17 04:55:00,-17.2,-21.0,30.14,West,281,0.0,0.0,82,0.00,,SKC,0.00,VWS V14.01,2013-02-17 10:55:00,
2013-02-17 04:58:00,-16.3,-19.7,30.14,West,281,0.0,0.0,84,0.00,,SKC,0.00,VWS V14.01,2013-02-17 10:58:00,
2013-02-17 05:00:00,-17.3,-21.1,30.15,West,281,0.0,0.0,82,0.00,,SKC,0.00,VWS V14.01,2013-02-17 11:00:00,
2013-02-17 05:03:00,-16.3,-19.7,30.15,West,281,0.0,0.0,84,0.00,,SKC,0.00,VWS V14.01,2013-02-17 11:03:00,
2013-02-17 05:05:00,-17.5,-21.3,30.15,West,281,0.0,0.0,82,0.00,,SKC,0.00,VWS V14.01,2013-02-17 11:05:00,
2013-02-17 05:08:00,-15.9,-19.1,30.15,West,281,0.0,0.0,85,0.00,,SKC,0.00,VWS V14.01,2013-02-17 11:08:00,
2013-02-17 05:10:00,-17.5,-21.3,30.15,West,281,0.0,0.0,82,0.00,,SKC,0.00,VWS V14.01,2013-02-17 11:10:00,
2013-02-17 05:13:00,-16.1,-19.5,30.15,West,281,0.0,0.0,84,0.00,,SKC,0.00,VWS V14.01,2013-02-17 11:13:00,
2013-02-17 05:15:00,-17.6,-21.4,30.15,West,281,0.0,0.0,82,0.00,,SKC,0.00,VWS V14.01,2013-02-17 11:15:00,
2013-02-17 05:18:00,-16.2,-19.6,30.14,West,281,0.0,0.0,84,0.00,,SKC,0.00,VWS V14.01,2013-02-17 11:18:00,
2013-02-17 05:20:00,-17.7,-21.5,30.15,West,281,0.0,0.0,82,0.00,,SKC,0.00,VWS V14.01,2013-02-17 11:20:00,
2013-02-17 05:23:00,-16.5,-20.1,30.14,West,281,0.0,0.0,83,0.00,,SKC,0.00,VWS V14.01,2013-02-17 11:23:00,
2013-02-17 05:25:00,-17.9,-21.7,30.15,West,281,0.0,0.0,82,0.00,,SKC,0.00,VWS V14.01,2013-02-17 11:25:00,
2013-02-17 05:28:00,-16.6,-20.2,30.14,West,281,0.0,0.0,83,0.00,,SKC,0.00,VWS V14.01,2013-02-17 11:28:00,
2013-02-17 05:30:00,-18.0,-21.8,30.15,West,281,0.0,0.0,82,0.00,,SKC,0.00,VWS V14.01,2013-02-17 11:30:00,
2013-02-17 05:33:00,-16.7,-20.3,30.15,West,281,0.0,0.0,83,0.00,,SKC,0.00,VWS V14.01,2013-02-17 11:33:00,
2013-02-17 05:35:00,-18.1,-21.9,30.15,West,281,0.0,0.0,82,0.00,,SKC,0.00,VWS V14.01,2013-02-17 11:35:00,
2013-02-17 05:38:00,-16.8,-20.4,30.15,West,281,0.0,0.0,83,0.00,,SKC,0.00,VWS V14.01,2013-02-17 11:38:00,
2013-02-17 05:40:00,-18.3,-22.1,30.15,West,281,0.0,0.0,82,0.00,,SKC,0.00,VWS V14.01,2013-02-17 11:40:00,
2013-02-17 05:43:00,-16.9,-20.5,30.15,West,281,0.0,0.0,83,0.00,,SKC,0.00,VWS V14.01,2013-02-17 11:43:00,
2013-02-17 05:45:00,-18.4,-22.2,30.15,West,281,0.0,0.0,82,0.00,,SKC,0.00,VWS V14.01,2013-02-17 11:45:00,
2013-02-17 05:48:00,-16.9,-20.5,30.14,West,281,0.0,0.0,83,0.00,,SKC,0.00,VWS V14.01,2013-02-17 11:48:00,
2013-02-17 05:50:00,-18.2,-22.0,30.15,West,281,0.0,0.0,82,0.00,,SKC,0.00,VWS V14.01,2013-02-17 11:50:00,
2013-02-17 05:53:00,-17.0,-20.6,30.14,West,281,0.0,0.0,83,0.00,,SKC,0.00,VWS V14.01,2013-02-17 11:53:00,
2013-02-17 05:55:00,-18.1,-21.7,30.15,West,281,0.0,0.0,83,0.00,,SKC,0.00,VWS V14.01,2013-02-17 11:55:00,
2013-02-17 05:58:00,-17.2,-21.0,30.14,West,281,0.0,0.0,82,0.00,,SKC,0.00,VWS V14.01,2013-02-17 11:58:00,
2013-02-17 06:00:00,-18.0,-21.6,30.15,West,281,0.0,0.0,83,0.00,,SKC,0.00,VWS V14.01,2013-02-17 12:00:00,
2013-02-17 06:03:00,-17.3,-21.1,30.15,West,281,0.0,0.0,82,0.00,,SKC,0.00,VWS V14.01,2013-02-17 12:03:00,
2013-02-17 06:05:00,-18.2,-22.0,30.15,West,281,0.0,0.0,82,0.00,,SKC,0.00,VWS V14.01,2013-02-17 12:05:00,
2013-02-17 06:08:00,-17.5,-21.3,30.15,West,281,0.0,0.0,82,0.00,,SKC,0.00,VWS V14.01,2013-02-17 12:08:00,
2013-02-17 06:10:00,-18.6,-22.6,30.15,West,281,0.0,0.0,81,0.00,,SKC,0.00,VWS V14.01,2013-02-17 12:10:00,
2013-02-17 06:13:00,-17.6,-21.4,30.15,West,281,0.0,0.0,82,0.00,,SKC,0.00,VWS V14.01,2013-02-17 12:13:00,
2013-02-17 06:15:00,-18.7,-22.7,30.15,West,281,0.0,0.0,81,0.00,,SKC,0.00,VWS V14.01,2013-02-17 12:15:00,
2013-02-17 06:18:00,-17.6,-21.4,30.15,West,281,0.0,0.0,82,0.00,,SKC,0.00,VWS V14.01,2013-02-17 12:18:00,
2013-02-17 06:20:00,-18.6,-22.6,30.15,West,281,0.0,0.0,81,0.00,,SKC,0.00,VWS V14.01,2013-02-17 12:20:00,
2013-02-17 06:23:00,-17.7,-21.5,30.15,West,281,0.0,0.0,82,0.00,,SKC,0.00,VWS V14.01,2013-02-17 12:23:00,
2013-02-17 06:25:00,-18.4,-22.2,30.15,West,281,0.0,0.0,82,0.00,,SKC,0.00,VWS V14.01,2013-02-17 12:25:00,
2013-02-17 06:28:00,-18.0,-21.8,30.15,West,281,0.0,0.0,82,0.00,,SKC,0.00,VWS V14.01,2013-02-17 12:28:00,
2013-02-17 06:30:00,-18.2,-22.0,30.15,West,281,0.0,0.0,82,0.00,,SKC,0.00,VWS V14.01,2013-02-17 12:30:00,
2013-02-17 06:33:00,-18.0,-21.8,30.15,West,281,0.0,0.0,82,0.00,,SKC,0.00,VWS V14.01,2013-02-17 12:33:00,
2013-02-17 06:35:00,-17.9,-21.7,30.15,West,281,0.0,0.0,82,0.00,,SKC,0.00,VWS V14.01,2013-02-17 12:35:00,
2013-02-17 06:38:00,-18.2,-22.0,30.15,West,281,0.0,0.0,82,0.00,,SKC,0.00,VWS V14.01,2013-02-17 12:38:00,
2013-02-17 06:40:00,-17.9,-21.7,30.15,West,281,0.0,0.0,82,0.00,,SKC,0.00,VWS V14.01,2013-02-17 12:40:00,
2013-02-17 06:43:00,-18.3,-22.1,30.15,West,281,0.0,0.0,82,0.00,,SKC,0.00,VWS V14.01,2013-02-17 12:43:00,
2013-02-17 06:45:00,-17.3,-21.1,30.16,West,281,0.0,0.0,82,0.00,,SKC,0.00,VWS V14.01,2013-02-17 12:45:00,
2013-02-17 06:48:00,-18.3,-22.1,30.15,West,281,0.0,0.0,82,0.00,,SKC,0.00,VWS V14.01,2013-02-17 12:48:00,
2013-02-17 06:50:00,-16.8,-20.4,30.16,West,281,0.0,0.0,83,0.00,,SKC,0.00,VWS V14.01,2013-02-17 12:50:00,
2013-02-17 06:53:00,-18.2,-22.0,30.15,West,281,0.0,0.0,82,0.00,,SKC,0.00,VWS V14.01,2013-02-17 12:53:00,
2013-02-17 06:55:00,-16.3,-19.9,30.16,West,281,0.0,0.0,83,0.00,,SKC,0.00,VWS V14.01,2013-02-17 12:55:00,
2013-02-17 06:58:00,-18.1,-21.7,30.15,West,281,0.0,0.0,83,0.00,,SKC,0.00,VWS V14.01,2013-02-17 12:58:00,
2013-02-17 07:00:00,-15.8,-19.2,30.15,West,281,0.0,0.0,84,0.00,,SKC,0.00,VWS V14.01,2013-02-17 13:00:00,
2013-02-17 07:03:00,-18.2,-21.8,30.15,West,281,0.0,0.0,83,0.00,,SKC,0.00,VWS V14.01,2013-02-17 13:03:00,
2013-02-17 07:05:00,-15.2,-18.6,30.15,West,281,0.0,0.0,84,0.00,,SKC,0.00,VWS V14.01,2013-02-17 13:05:00,
2013-02-17 07:08:00,-18.3,-22.1,30.15,West,281,0.0,0.0,82,0.00,,SKC,0.00,VWS V14.01,2013-02-17 13:08:00,
2013-02-17 07:10:00,-14.7,-18.1,30.15,West,281,0.0,0.0,84,0.00,,SKC,0.00,VWS V14.01,2013-02-17 13:10:00,
2013-02-17 07:13:00,-18.6,-22.6,30.15,West,281,0.0,0.0,81,0.00,,SKC,0.00,VWS V14.01,2013-02-17 13:13:00,
2013-02-17 07:15:00,-14.0,-17.2,30.15,West,281,0.0,0.0,85,0.00,,SKC,0.00,VWS V14.01,2013-02-17 13:15:00,
2013-02-17 07:19:00,-18.7,-22.7,30.15,West,281,0.0,0.0,81,0.00,,SKC,0.00,VWS V14.01,2013-02-17 13:19:00,
2013-02-17 07:20:00,-13.3,-16.5,30.15,West,281,0.0,0.0,85,0.00,,SKC,0.00,VWS V14.01,2013-02-17 13:20:00,
2013-02-17 07:24:00,-18.5,-22.3,30.15,West,281,0.0,0.0,82,0.00,,SKC,0.00,VWS V14.01,2013-02-17 13:24:00,
2013-02-17 07:25:00,-12.4,-15.4,30.15,West,281,0.0,0.0,86,0.00,,SKC,0.00,VWS V14.01,2013-02-17 13:25:00,
2013-02-17 07:29:00,-18.3,-22.1,30.15,West,281,0.0,0.0,82,0.00,,SKC,0.00,VWS V14.01,2013-02-17 13:29:00,
2013-02-17 07:30:00,-11.3,-14.3,30.14,West,281,0.0,0.0,86,0.00,,SKC,0.00,VWS V14.01,2013-02-17 13:30:00,
2013-02-17 07:34:00,-18.0,-21.8,30.15,West,281,0.0,0.0,82,0.00,,SKC,0.00,VWS V14.01,2013-02-17 13:34:00,
2013-02-17 07:35:00,-10.1,-12.9,30.14,West,281,0.0,0.0,87,0.00,,SKC,0.00,VWS V14.01,2013-02-17 13:35:00,
2013-02-17 07:39:00,-17.9,-21.7,30.15,West,281,0.0,0.0,82,0.00,,SKC,0.00,VWS V14.01,2013-02-17 13:39:00,
2013-02-17 07:40:00,-9.1,-11.9,30.14,West,281,0.0,0.0,87,0.00,,SKC,0.00,VWS V14.01,2013-02-17 13:40:00,
2013-02-17 07:44:00,-17.7,-21.5,30.15,West,281,0.0,0.0,82,0.00,,SKC,0.00,VWS V14.01,2013-02-17 13:44:00,
2013-02-17 07:45:00,-7.8,-10.4,30.15,West,281,0.0,0.0,88,0.00,,SKC,0.00,VWS V14.01,2013-02-17 13:45:00,
2013-02-17 07:49:00,-17.1,-20.7,30.16,West,281,0.0,0.0,83,0.00,,SKC,0.00,VWS V14.01,2013-02-17 13:49:00,
2013-02-17 07:50:00,-6.3,-8.9,30.15,West,279,0.0,0.0,88,0.00,,SKC,0.00,VWS V14.01,2013-02-17 13:50:00,
2013-02-17 07:54:00,-16.6,-20.2,30.16,West,281,0.0,0.0,83,0.00,,SKC,0.00,VWS V14.01,2013-02-17 13:54:00,
2013-02-17 07:55:00,-4.6,-7.0,30.15,West,279,0.0,0.0,89,0.00,,SKC,0.00,VWS V14.01,2013-02-17 13:55:00,
2013-02-17 07:59:00,-16.2,-19.8,30.16,West,281,0.0,0.0,83,0.00,,SKC,0.00,VWS V14.01,2013-02-17 13:59:00,
2013-02-17 08:00:00,-3.0,-5.7,30.15,SE,134,0.0,0.0,88,0.00,,SKC,0.00,VWS V14.01,2013-02-17 14:00:00,
2013-02-17 08:05:00,-15.5,-18.9,30.15,West,281,0.0,0.0,84,0.00,,SKC,0.00,VWS V14.01,2013-02-17 14:05:00,
2013-02-17 08:10:00,-15.0,-18.4,30.15,West,281,0.0,0.0,84,0.00,,SKC,0.00,VWS V14.01,2013-02-17 14:10:00,
2013-02-17 08:15:00,-14.3,-17.5,30.15,West,281,0.0,0.0,85,0.00,,SKC,0.00,VWS V14.01,2013-02-17 14:15:00,
2013-02-17 08:20:00,-13.6,-16.8,30.15,West,281,0.0,0.0,85,0.00,,SKC,0.00,VWS V14.01,2013-02-17 14:20:00,
2013-02-17 08:25:00,-12.7,-15.7,30.15,West,281,0.0,0.0,86,0.00,,SKC,0.00,VWS V14.01,2013-02-17 14:25:00,
2013-02-17 08:30:00,-11.8,-14.8,30.15,West,281,0.0,0.0,86,0.00,,SKC,0.00,VWS V14.01,2013-02-17 14:30:00,
2013-02-17 08:35:00,-10.5,-13.3,30.14,West,281,0.0,0.0,87,0.00,,SKC,0.00,VWS V14.01,2013-02-17 14:35:00,
2013-02-17 08:40:00,-9.5,-12.3,30.14,West,281,0.0,0.0,87,0.00,,SKC,0.00,VWS V14.01,2013-02-17 14:40:00,
2013-02-17 08:45:00,-8.3,-10.9,30.14,West,281,0.0,0.0,88,0.00,,SKC,0.00,VWS V14.01,2013-02-17 14:45:00,
2013-02-17 08:50:00,-6.9,-9.5,30.15,West,280,0.0,0.0,88,0.00,,SKC,0.00,VWS V14.01,2013-02-17 14:50:00,
2013-02-17 08:55:00,-5.3,-7.9,30.15,West,279,0.0,0.0,88,0.00,,SKC,0.00,VWS V14.01,2013-02-17 14:55:00,
2013-02-17 09:00:00,-3.6,-6.2,30.15,SW,219,0.0,0.0,88,0.00,,SKC,0.00,VWS V14.01,2013-02-17 15:00:00,
2013-02-17 09:05:00,-2.2,-5.1,30.15,SSE,167,0.0,0.0,87,0.00,,SKC,0.00,VWS V14.01,2013-02-17 15:05:00,
2013-02-17 09:10:00,-0.7,-3.6,30.15,SSE,167,0.0,0.0,87,0.00,,SKC,0.00,VWS V14.01,2013-02-17 15:10:00,
2013-02-17 09:15:00,0.4,-2.8,30.15,SSE,156,0.0,0.0,86,0.00,,SKC,0.00,VWS V14.01,2013-02-17 15:15:00,
2013-02-17 09:20:00,1.3,-2.4,30.15,ESE,118,0.0,0.0,84,0.00,,SKC,0.00,VWS V14.01,2013-02-17 15:20:00,
2013-02-17 09:25:00,2.1,-1.6,30.15,ESE,116,0.0,0.0,84,0.00,,SKC,0.00,VWS V14.01,2013-02-17 15:25:00,
2013-02-17 09:30:00,3.1,-0.6,30.15,ESE,115,0.0,0.0,84,0.00,,SKC,0.00,VWS V14.01,2013-02-17 15:30:00,
2013-02-17 09:35:00,3.9,-0.1,30.15,SE,133,0.0,0.0,83,0.00,,SKC,0.00,VWS V14.01,2013-02-17 15:35:00,
2013-02-17 09:40:00,4.9,0.9,30.15,SE,141,0.0,0.0,83,0.00,,SKC,0.00,VWS V14.01,2013-02-17 15:40:00,
2013-02-17 09:45:00,6.0,1.7,30.15,SSE,161,0.0,0.0,82,0.00,,SKC,0.00,VWS V14.01,2013-02-17 15:45:00,
2013-02-17 09:50:00,7.0,2.4,30.14,SE,127,0.0,0.0,81,0.00,,SKC,0.00,VWS V14.01,2013-02-17 15:50:00,
2013-02-17 09:55:00,7.8,2.7,30.14,SW,232,0.0,0.0,79,0.00,,SKC,0.00,VWS V14.01,2013-02-17 15:55:00,
2013-02-17 10:00:00,8.6,3.2,30.14,SW,217,0.0,0.0,78,0.00,,SKC,0.00,VWS V14.01,2013-02-17 16:00:00,
2013-02-17 10:05:00,9.3,3.6,30.15,SE,126,0.0,0.0,77,0.00,,SKC,0.00,VWS V14.01,2013-02-17 16:05:00,
2013-02-17 10:10:00,10.2,3.9,30.15,SW,227,0.0,0.0,75,0.00,,SKC,0.00,VWS V14.01,2013-02-17 16:10:00,
2013-02-17 10:15:00,11.0,4.1,30.15,SE,128,0.0,0.0,73,0.00,,SKC,0.00,VWS V14.01,2013-02-17 16:15:00,
2013-02-17 10:20:00,11.8,4.5,30.14,ESE,107,0.0,0.0,72,0.00,,SKC,0.00,VWS V14.01,2013-02-17 16:20:00,
2013-02-17 10:25:00,12.5,4.6,30.14,SE,134,0.0,0.0,70,0.00,,SKC,0.00,VWS V14.01,2013-02-17 16:25:00,
2013-02-17 10:30:00,12.9,4.3,30.14,SSE,156,0.0,0.0,68,0.00,,SKC,0.00,VWS V14.01,2013-02-17 16:30:00,
2013-02-17 10:35:00,18.2,4.4,30.12,SW,226,0.0,0.0,54,0.00,,SKC,0.00,VWS V14.01,2013-02-17 16:35:00,
2013-02-17 10:36:00,13.5,4.6,30.14,SW,235,0.0,0.0,67,0.00,,SKC,0.00,VWS V14.01,2013-02-17 16:36:00,
2013-02-17 10:40:00,18.6,4.3,30.12,SSE,167,0.0,0.0,53,0.00,,SKC,0.00,VWS V14.01,2013-02-17 16:40:00,
2013-02-17 10:41:00,14.1,4.8,30.14,ESE,119,0.0,0.0,66,0.00,,SKC,0.00,VWS V14.01,2013-02-17 16:41:00,
2013-02-17 10:45:00,18.8,4.5,30.11,SSE,165,0.0,0.0,53,0.00,,SKC,0.00,VWS V14.01,2013-02-17 16:45:00,
2013-02-17 10:46:00,14.6,4.7,30.14,SE,146,0.0,0.0,64,0.00,,SKC,0.00,VWS V14.01,2013-02-17 16:46:00,
2013-02-17 10:50:00,19.0,4.7,30.11,SSE,149,0.0,0.0,53,0.00,,SKC,0.00,VWS V14.01,2013-02-17 16:50:00,
2013-02-17 10:51:00,15.1,4.8,30.12,East,101,0.0,0.0,63,0.00,,SKC,0.00,VWS V14.01,2013-02-17 16:51:00,
2013-02-17 10:55:00,19.4,4.7,30.11,South,190,0.0,0.0,52,0.00,,SKC,0.00,VWS V14.01,2013-02-17 16:55:00,
2013-02-17 10:56:00,15.2,4.2,30.12,ESE,115,0.0,0.0,61,0.00,,SKC,0.00,VWS V14.01,2013-02-17 16:56:00,
2013-02-17 11:00:00,20.1,5.3,30.10,South,186,0.0,0.0,52,0.00,,SKC,0.00,VWS V14.01,2013-02-17 17:00:00,
2013-02-17 11:01:00,15.2,3.8,30.12,SE,134,0.0,0.0,60,0.00,,SKC,0.00,VWS V14.01,2013-02-17 17:01:00,
2013-02-17 11:05:00,20.2,5.0,30.10,ESE,118,0.0,0.0,51,0.00,,SKC,0.00,VWS V14.01,2013-02-17 17:05:00,
2013-02-17 11:06:00,15.4,4.0,30.12,SSE,156,0.0,0.0,60,0.00,,SKC,0.00,VWS V14.01,2013-02-17 17:06:00,
2013-02-17 11:10:00,20.4,5.2,30.10,SSW,200,0.0,0.0,51,0.00,,SKC,0.00,VWS V14.01,2013-02-17 17:10:00,
2013-02-17 11:11:00,15.7,4.3,30.12,SSE,159,0.0,0.0,60,0.00,,SKC,0.00,VWS V14.01,2013-02-17 17:11:00,
2013-02-17 11:15:00,20.4,5.6,30.09,SSE,168,0.0,0.0,52,0.00,,SKC,0.00,VWS V14.01,2013-02-17 17:15:00,
2013-02-17 11:16:00,16.4,5.0,30.12,ESE,105,0.0,0.0,60,0.00,,SKC,0.00,VWS V14.01,2013-02-17 17:16:00,
2013-02-17 11:20:00,20.6,5.3,30.09,ESE,122,0.0,0.0,51,0.00,,SKC,0.00,VWS V14.01,2013-02-17 17:20:00,
2013-02-17 11:21:00,16.8,4.2,30.12,SE,144,0.0,0.0,57,0.00,,SKC,0.00,VWS V14.01,2013-02-17 17:21:00,
2013-02-17 11:25:00,20.6,4.9,30.09,ESE,122,0.0,0.0,50,0.00,,SKC,0.00,VWS V14.01,2013-02-17 17:25:00,
2013-02-17 11:26:00,17.1,4.1,30.12,SSE,148,0.0,0.0,56,0.00,,SKC,0.00,VWS V14.01,2013-02-17 17:26:00,
2013-02-17 11:30:00,20.3,5.1,30.08,SSE,168,0.0,0.0,51,0.00,,SKC,0.00,VWS V14.01,2013-02-17 17:30:00,
2013-02-17 11:31:00,17.6,4.2,30.12,SE,133,0.0,0.0,55,0.00,,SKC,0.00,VWS V14.01,2013-02-17 17:31:00,
2013-02-17 11:35:00,20.5,4.8,30.08,South,175,0.0,0.0,50,0.00,,SKC,0.00,VWS V14.01,2013-02-17 17:35:00,
2013-02-17 11:36:00,18.0,4.6,30.12,SSE,158,0.0,0.0,55,0.00,,SKC,0.00,VWS V14.01,2013-02-17 17:36:00,
2013-02-17 11:40:00,21.2,5.0,30.08,SE,132,0.0,0.0,49,0.00,,SKC,0.00,VWS V14.01,2013-02-17 17:40:00,
2013-02-17 11:41:00,18.5,4.6,30.12,SSE,153,0.0,0.0,54,0.00,,SKC,0.00,VWS V14.01,2013-02-17 17:41:00,
2013-02-17 11:45:00,21.3,4.7,30.07,ESE,118,0.0,0.0,48,0.00,,SKC,0.00,VWS V14.01,2013-02-17 17:45:00,
2013-02-17 11:46:00,18.7,4.8,30.12,SE,146,0.0,0.0,54,0.00,,SKC,0.00,VWS V14.01,2013-02-17 17:46:00,
2013-02-17 11:50:00,21.6,5.0,30.07,SW,226,0.0,0.0,48,0.00,,SKC,0.00,VWS V14.01,2013-02-17 17:50:00,
2013-02-17 11:51:00,18.9,4.6,30.11,SE,145,0.0,0.0,53,0.00,,SKC,0.00,VWS V14.01,2013-02-17 17:51:00,
2013-02-17 11:55:00,22.1,5.0,30.07,SW,227,0.0,0.0,47,0.00,,SKC,0.00,VWS V14.01,2013-02-17 17:55:00,
2013-02-17 11:56:00,19.3,5.4,30.11,SW,236,0.0,0.0,54,0.00,,SKC,0.00,VWS V14.01,2013-02-17 17:56:00,
2013-02-17 12:00:00,22.6,5.4,30.07,SE,126,0.0,0.0,47,0.00,,SKC,0.00,VWS V14.01,2013-02-17 18:00:00,
2013-02-17 12:01:00,20.1,6.1,30.11,WSW,238,0.0,0.0,54,0.00,,SKC,0.00,VWS V14.01,2013-02-17 18:01:00,
2013-02-17 12:05:00,22.7,5.5,30.07,ESE,123,0.0,0.0,47,0.00,,SKC,0.00,VWS V14.01,2013-02-17 18:05:00,
2013-02-17 12:06:00,20.2,4.6,30.10,SSW,207,0.0,0.0,50,0.00,,SKC,0.00,VWS V14.01,2013-02-17 18:06:00,
2013-02-17 12:10:00,22.3,5.1,30.07,SE,125,0.0,0.0,47,0.00,,SKC,0.00,VWS V14.01,2013-02-17 18:10:00,
2013-02-17 12:11:00,20.3,5.1,30.10,WSW,237,0.0,0.0,51,0.00,,SKC,0.00,VWS V14.01,2013-02-17 18:11:00,
2013-02-17 12:15:00,22.3,4.7,30.07,SE,134,0.0,0.0,46,0.00,,SKC,0.00,VWS V14.01,2013-02-17 18:15:00,
2013-02-17 12:16:00,20.3,5.1,30.10,WSW,238,0.0,0.0,51,0.00,,SKC,0.00,VWS V14.01,2013-02-17 18:16:00,
2013-02-17 12:20:00,22.8,5.1,30.07,SSW,200,0.0,0.0,46,0.00,,SKC,0.00,VWS V14.01,2013-02-17 18:20:00,
2013-02-17 12:21:00,20.5,4.8,30.09,ESE,115,0.0,0.0,50,0.00,,SKC,0.00,VWS V14.01,2013-02-17 18:21:00,
2013-02-17 12:25:00,22.8,5.1,30.07,SE,126,0.0,0.0,46,0.00,,SKC,0.00,VWS V14.01,2013-02-17 18:25:00,
2013-02-17 12:26:00,20.7,5.4,30.09,ESE,111,0.0,0.0,51,0.00,,SKC,0.00,VWS V14.01,2013-02-17 18:26:00,
2013-02-17 12:30:00,22.7,4.1,30.05,SW,232,0.0,0.0,44,0.00,,SKC,0.00,VWS V14.01,2013-02-17 18:30:00,
2013-02-17 12:31:00,20.3,5.5,30.08,SE,146,0.0,0.0,52,0.00,,SKC,0.00,VWS V14.01,2013-02-17 18:31:00,
2013-02-17 12:35:00,22.9,4.3,30.05,SW,225,0.0,0.0,44,0.00,,SKC,0.00,VWS V14.01,2013-02-17 18:35:00,
2013-02-17 12:36:00,20.5,4.8,30.08,SE,124,0.0,0.0,50,0.00,,SKC,0.00,VWS V14.01,2013-02-17 18:36:00,
2013-02-17 12:40:00,23.0,3.8,30.05,SE,146,0.0,0.0,43,0.00,,SKC,0.00,VWS V14.01,2013-02-17 18:40:00,
2013-02-17 12:41:00,21.2,5.0,30.08,ESE,117,0.0,0.0,49,0.00,,SKC,0.00,VWS V14.01,2013-02-17 18:41:00,
2013-02-17 12:45:00,22.8,4.7,30.05,SSW,206,0.0,0.0,45,0.00,,SKC,0.00,VWS V14.01,2013-02-17 18:45:00,
2013-02-17 12:46:00,21.3,5.1,30.08,SE,128,0.0,0.0,49,0.00,,SKC,0.00,VWS V14.01,2013-02-17 18:46:00,
2013-02-17 12:50:00,22.8,4.2,30.05,SE,125,0.0,0.0,44,0.00,,SKC,0.00,VWS V14.01,2013-02-17 18:50:00,
2013-02-17 12:51:00,21.5,5.3,30.07,SE,138,0.0,0.0,49,0.00,,SKC,0.00,VWS V14.01,2013-02-17 18:51:00,
2013-02-17 12:55:00,23.0,3.3,30.05,SE,125,0.0,0.0,42,0.00,,SKC,0.00,VWS V14.01,2013-02-17 18:55:00,
2013-02-17 12:56:00,22.1,5.0,30.07,SE,136,0.0,0.0,47,0.00,,SKC,0.00,VWS V14.01,2013-02-17 18:56:00,
2013-02-17 13:00:00,23.4,3.7,30.04,SW,227,0.0,0.0,42,0.00,,SKC,0.00,VWS V14.01,2013-02-17 19:00:00,
2013-02-17 13:01:00,22.5,5.8,30.07,WSW,247,0.0,0.0,48,0.00,,SKC,0.00,VWS V14.01,2013-02-17 19:01:00,
2013-02-17 13:05:00,23.6,4.4,30.04,SSE,153,0.0,0.0,43,0.00,,SKC,0.00,VWS V14.01,2013-02-17 19:05:00,
2013-02-17 13:06:00,22.7,5.5,30.07,SE,137,0.0,0.0,47,0.00,,SKC,0.00,VWS V14.01,2013-02-17 19:06:00,
2013-02-17 13:10:00,24.1,5.8,30.04,WSW,256,0.0,0.0,45,0.00,,SKC,0.00,VWS V14.01,2013-02-17 19:10:00,
2013-02-17 13:11:00,22.3,5.1,30.07,SE,145,0.0,0.0,47,0.00,,SKC,0.00,VWS V14.01,2013-02-17 19:11:00,
2013-02-17 13:15:00,24.3,4.5,30.04,South,187,0.0,0.0,42,0.00,,SKC,0.00,VWS V14.01,2013-02-17 19:15:00,
2013-02-17 13:16:00,22.4,4.8,30.07,SSE,168,0.0,0.0,46,0.00,,SKC,0.00,VWS V14.01,2013-02-17 19:16:00,
2013-02-17 13:20:00,24.3,5.5,30.04,West,269,0.0,0.0,44,0.00,,SKC,0.00,VWS V14.01,2013-02-17 19:20:00,
2013-02-17 13:21:00,22.7,5.0,30.07,WSW,237,0.0,0.0,46,0.00,,SKC,0.00,VWS V14.01,2013-02-17 19:21:00,
2013-02-17 13:25:00,24.2,4.9,30.04,ESE,113,0.0,0.0,43,0.00,,SKC,0.00,VWS V14.01,2013-02-17 19:25:00,
2013-02-17 13:26:00,22.8,5.1,30.07,SE,143,0.0,0.0,46,0.00,,SKC,0.00,VWS V14.01,2013-02-17 19:26:00,
2013-02-17 13:30:00,23.9,5.7,30.03,ESE,111,0.0,0.0,45,0.00,,SKC,0.00,VWS V14.01,2013-02-17 19:30:00,
2013-02-17 13:31:00,22.7,4.1,30.05,SW,236,0.0,0.0,44,0.00,,SKC,0.00,VWS V14.01,2013-02-17 19:31:00,
2013-02-17 13:35:00,23.9,6.1,30.03,ESE,119,0.0,0.0,46,0.00,,SKC,0.00,VWS V14.01,2013-02-17 19:35:00,
2013-02-17 13:36:00,22.9,4.3,30.05,SSE,154,0.0,0.0,44,0.00,,SKC,0.00,VWS V14.01,2013-02-17 19:36:00,
2013-02-17 13:40:00,23.9,5.7,30.03,SSW,207,0.0,0.0,45,0.00,,SKC,0.00,VWS V14.01,2013-02-17 19:40:00,
2013-02-17 13:41:00,23.0,3.8,30.05,SE,146,0.0,0.0,43,0.00,,SKC,0.00,VWS V14.01,2013-02-17 19:41:00,
2013-02-17 13:45:00,23.6,4.4,30.02,SSE,150,0.0,0.0,43,0.00,,SKC,0.00,VWS V14.01,2013-02-17 19:45:00,
2013-02-17 13:46:00,22.8,4.2,30.05,SSE,160,0.0,0.0,44,0.00,,SKC,0.00,VWS V14.01,2013-02-17 19:46:00,
2013-02-17 13:50:00,23.1,3.9,30.02,SSE,152,0.0,0.0,43,0.00,,SKC,0.00,VWS V14.01,2013-02-17 19:50:00,
2013-02-17 13:51:00,22.8,4.7,30.05,ESE,107,0.0,0.0,45,0.00,,SKC,0.00,VWS V14.01,2013-02-17 19:51:00,
2013-02-17 13:55:00,22.5,3.9,30.02,SE,129,0.0,0.0,44,0.00,,SKC,0.00,VWS V14.01,2013-02-17 19:55:00,
2013-02-17 13:56:00,23.0,2.8,30.05,ESE,107,0.0,0.0,41,0.00,,SKC,0.00,VWS V14.01,2013-02-17 19:56:00,
2013-02-17 14:00:00,22.3,4.2,30.02,SE,143,0.0,0.0,45,0.00,,SKC,0.00,VWS V14.01,2013-02-17 20:00:00,
2013-02-17 14:01:00,23.4,3.7,30.04,SE,142,0.0,0.0,42,0.00,,SKC,0.00,VWS V14.01,2013-02-17 20:01:00,
2013-02-17 14:05:00,22.6,4.9,30.02,South,188,0.0,0.0,46,0.00,,SKC,0.00,VWS V14.01,2013-02-17 20:05:00,
2013-02-17 14:07:00,23.6,4.4,30.04,SE,144,0.0,0.0,43,0.00,,SKC,0.00,VWS V14.01,2013-02-17 20:07:00,
2013-02-17 14:10:00,22.8,4.2,30.02,SE,133,0.0,0.0,44,0.00,,SKC,0.00,VWS V14.01,2013-02-17 20:10:00,
2013-02-17 14:12:00,24.0,5.8,30.04,SE,133,0.0,0.0,45,0.00,,SKC,0.00,VWS V14.01,2013-02-17 20:12:00,
2013-02-17 14:15:00,22.9,5.2,30.01,SSE,156,0.0,0.0,46,0.00,,SKC,0.00,VWS V14.01,2013-02-17 20:15:00,
2013-02-17 14:17:00,24.3,4.5,30.04,SW,224,0.0,0.0,42,0.00,,SKC,0.00,VWS V14.01,2013-02-17 20:17:00,
2013-02-17 14:20:00,22.7,4.6,30.01,ESE,117,0.0,0.0,45,0.00,,SKC,0.00,VWS V14.01,2013-02-17 20:20:00,
2013-02-17 14:22:00,24.3,5.5,30.04,South,183,0.0,0.0,44,0.00,,SKC,0.00,VWS V14.01,2013-02-17 20:22:00,
2013-02-17 14:25:00,22.4,5.7,30.01,ESE,114,0.0,0.0,48,0.00,,SKC,0.00,VWS V14.01,2013-02-17 20:25:00,
2013-02-17 14:27:00,24.3,4.5,30.04,ESE,117,0.0,0.0,42,0.00,,SKC,0.00,VWS V14.01,2013-02-17 20:27:00,
2013-02-17 14:30:00,22.1,7.2,30.00,SE,141,0.0,0.0,52,0.00,,SKC,0.00,VWS V14.01,2013-02-17 20:30:00,
2013-02-17 14:32:00,23.8,5.6,30.03,SSE,155,0.0,0.0,45,0.00,,SKC,0.00,VWS V14.01,2013-02-17 20:32:00,
2013-02-17 14:35:00,22.0,6.7,30.00,SSE,148,0.0,0.0,51,0.00,,SKC,0.00,VWS V14.01,2013-02-17 20:35:00,
2013-02-17 14:37:00,23.9,6.1,30.03,South,189,0.0,0.0,46,0.00,,SKC,0.00,VWS V14.01,2013-02-17 20:37:00,
2013-02-17 14:40:00,21.8,6.9,30.00,ESE,108,0.0,0.0,52,0.00,,SKC,0.00,VWS V14.01,2013-02-17 20:40:00,
2013-02-17 14:42:00,23.8,5.6,30.03,ESE,123,0.0,0.0,45,0.00,,SKC,0.00,VWS V14.01,2013-02-17 20:42:00,
2013-02-17 14:45:00,21.7,6.8,30.00,SE,128,0.0,0.0,52,0.00,,SKC,0.00,VWS V14.01,2013-02-17 20:45:00,
2013-02-17 14:47:00,23.6,4.4,30.02,SE,141,0.0,0.0,43,0.00,,SKC,0.00,VWS V14.01,2013-02-17 20:47:00,
2013-02-17 14:50:00,21.6,6.7,30.00,SSE,157,0.0,0.0,52,0.00,,SKC,0.00,VWS V14.01,2013-02-17 20:50:00,
2013-02-17 14:52:00,23.1,3.9,30.02,SSE,159,0.0,0.0,43,0.00,,SKC,0.00,VWS V14.01,2013-02-17 20:52:00,
2013-02-17 14:55:00,21.4,6.9,30.00,SE,126,0.0,0.0,53,0.00,,SKC,0.00,VWS V14.01,2013-02-17 20:55:00,
2013-02-17 14:57:00,22.5,3.9,30.02,SSE,149,0.0,0.0,44,0.00,,SKC,0.00,VWS V14.01,2013-02-17 20:57:00,
2013-02-17 15:00:00,20.9,6.1,30.00,ESE,107,0.0,0.0,52,0.00,,SKC,0.00,VWS V14.01,2013-02-17 21:00:00,
2013-02-17 15:02:00,22.3,4.2,30.02,SSE,161,0.0,0.0,45,0.00,,SKC,0.00,VWS V14.01,2013-02-17 21:02:00,
2013-02-17 15:05:00,20.6,5.8,30.00,SW,221,0.0,0.0,52,0.00,,SKC,0.00,VWS V14.01,2013-02-17 21:05:00,
2013-02-17 15:07:00,22.6,4.9,30.02,SSW,199,0.0,0.0,46,0.00,,SKC,0.00,VWS V14.01,2013-02-17 21:07:00,
2013-02-17 15:10:00,20.7,5.4,30.00,ESE,115,0.0,0.0,51,0.00,,SKC,0.00,VWS V14.01,2013-02-17 21:10:00,
2013-02-17 15:12:00,22.8,4.2,30.02,ESE,105,0.0,0.0,44,0.00,,SKC,0.00,VWS V14.01,2013-02-17 21:12:00,
2013-02-17 15:15:00,20.7,5.9,30.00,SE,130,0.0,0.0,52,0.00,,SKC,0.00,VWS V14.01,2013-02-17 21:15:00,
2013-02-17 15:17:00,22.9,5.2,30.01,SSW,209,0.0,0.0,46,0.00,,SKC,0.00,VWS V14.01,2013-02-17 21:17:00,
2013-02-17 15:20:00,20.7,5.4,30.00,ESE,113,0.0,0.0,51,0.00,,SKC,0.00,VWS V14.01,2013-02-17 21:20:00,
2013-02-17 15:22:00,22.7,4.6,30.01,SE,133,0.0,0.0,45,0.00,,SKC,0.00,VWS V14.01,2013-02-17 21:22:00,
2013-02-17 15:25:00,20.5,5.7,30.00,ESE,113,0.0,0.0,52,0.00,,SKC,0.00,VWS V14.01,2013-02-17 21:25:00,
2013-02-17 15:27:00,22.4,5.7,30.01,ESE,109,0.0,0.0,48,0.00,,SKC,0.00,VWS V14.01,2013-02-17 21:27:00,
2013-02-17 15:30:00,20.2,5.0,30.00,ESE,115,0.0,0.0,51,0.00,,SKC,0.00,VWS V14.01,2013-02-17 21:30:00,
2013-02-17 15:32:00,22.1,7.2,30.00,SE,138,0.0,0.0,52,0.00,,SKC,0.00,VWS V14.01,2013-02-17 21:32:00,
2013-02-17 15:35:00,20.0,4.8,30.00,SE,125,0.0,0.0,51,0.00,,SKC,0.00,VWS V14.01,2013-02-17 21:35:00,
2013-02-17 15:37:00,22.0,6.7,30.00,SSE,156,0.0,0.0,51,0.00,,SKC,0.00,VWS V14.01,2013-02-17 21:37:00,
2013-02-17 15:40:00,19.8,5.0,30.00,East,101,0.0,0.0,52,0.00,,SKC,0.00,VWS V14.01,2013-02-17 21:40:00,
2013-02-17 15:42:00,21.8,6.9,30.00,ESE,102,0.0,0.0,52,0.00,,SKC,0.00,VWS V14.01,2013-02-17 21:42:00,
2013-02-17 15:45:00,19.7,5.3,30.00,SE,132,0.0,0.0,53,0.00,,SKC,0.00,VWS V14.01,2013-02-17 21:45:00,
2013-02-17 15:47:00,21.7,6.8,30.00,SE,129,0.0,0.0,52,0.00,,SKC,0.00,VWS V14.01,2013-02-17 21:47:00,
2013-02-17 15:50:00,19.5,5.6,30.00,ESE,120,0.0,0.0,54,0.00,,SKC,0.00,VWS V14.01,2013-02-17 21:50:00,
2013-02-17 15:52:00,21.6,6.7,30.00,SSE,152,0.0,0.0,52,0.00,,SKC,0.00,VWS V14.01,2013-02-17 21:52:00,
2013-02-17 15:55:00,19.3,5.4,30.00,ESE,119,0.0,0.0,54,0.00,,SKC,0.00,VWS V14.01,2013-02-17 21:55:00,
2013-02-17 15:57:00,21.4,6.9,30.00,SE,126,0.0,0.0,53,0.00,,SKC,0.00,VWS V14.01,2013-02-17 21:57:00,
2013-02-17 16:00:00,19.1,5.2,29.99,ESE,123,0.0,0.0,54,0.00,,SKC,0.00,VWS V14.01,2013-02-17 22:00:00,
2013-02-17 16:02:00,20.9,6.1,30.00,East,100,0.0,0.0,52,0.00,,SKC,0.00,VWS V14.01,2013-02-17 22:02:00,
2013-02-17 16:05:00,18.8,4.9,29.99,ESE,119,0.0,0.0,54,0.00,,SKC,0.00,VWS V14.01,2013-02-17 22:05:00,
2013-02-17 16:07:00,20.7,5.9,30.00,South,188,0.0,0.0,52,0.00,,SKC,0.00,VWS V14.01,2013-02-17 22:07:00,
2013-02-17 16:10:00,18.6,5.1,29.99,ESE,108,0.0,0.0,55,0.00,,SKC,0.00,VWS V14.01,2013-02-17 22:10:00,
2013-02-17 16:12:00,20.7,5.9,30.00,SE,126,0.0,0.0,52,0.00,,SKC,0.00,VWS V14.01,2013-02-17 22:12:00,
2013-02-17 16:15:00,18.3,5.2,29.98,SE,138,0.0,0.0,56,0.00,,SKC,0.00,VWS V14.01,2013-02-17 22:15:00,
2013-02-17 16:17:00,20.7,5.9,30.00,ESE,119,0.0,0.0,52,0.00,,SKC,0.00,VWS V14.01,2013-02-17 22:17:00,
2013-02-17 16:20:00,18.1,5.1,29.98,SE,125,0.0,0.0,56,0.00,,SKC,0.00,VWS V14.01,2013-02-17 22:20:00,
2013-02-17 16:22:00,20.7,5.4,30.00,ESE,119,0.0,0.0,51,0.00,,SKC,0.00,VWS V14.01,2013-02-17 22:22:00,
2013-02-17 16:25:00,17.9,5.6,29.98,ESE,111,0.0,0.0,58,0.00,,SKC,0.00,VWS V14.01,2013-02-17 22:25:00,
2013-02-17 16:27:00,20.5,5.7,30.00,ESE,119,0.0,0.0,52,0.00,,SKC,0.00,VWS V14.01,2013-02-17 22:27:00,
2013-02-17 16:30:00,17.8,5.2,29.98,ESE,118,0.0,0.0,57,0.00,,SKC,0.00,VWS V14.01,2013-02-17 22:30:00,
2013-02-17 16:32:00,20.2,5.0,30.00,SE,130,0.0,0.0,51,0.00,,SKC,0.00,VWS V14.01,2013-02-17 22:32:00,
2013-02-17 16:35:00,17.5,6.0,29.98,ESE,110,0.0,0.0,60,0.00,,SKC,0.00,VWS V14.01,2013-02-17 22:35:00,
2013-02-17 16:37:00,20.1,4.9,30.00,SE,125,0.0,0.0,51,0.00,,SKC,0.00,VWS V14.01,2013-02-17 22:37:00,
2013-02-17 16:40:00,17.5,5.3,29.98,SE,131,0.0,0.0,58,0.00,,SKC,0.00,VWS V14.01,2013-02-17 22:40:00,
2013-02-17 16:42:00,19.8,5.0,30.00,ESE,123,0.0,0.0,52,0.00,,SKC,0.00,VWS V14.01,2013-02-17 22:42:00,
2013-02-17 16:45:00,17.4,5.2,29.97,ESE,115,0.0,0.0,58,0.00,,SKC,0.00,VWS V14.01,2013-02-17 22:45:00,
2013-02-17 16:47:00,19.7,5.3,30.00,SE,129,0.0,0.0,53,0.00,,SKC,0.00,VWS V14.01,2013-02-17 22:47:00,
2013-02-17 16:50:00,17.3,5.8,29.97,ESE,102,0.0,0.0,60,0.00,,SKC,0.00,VWS V14.01,2013-02-17 22:50:00,
2013-02-17 16:52:00,19.5,5.6,30.00,ESE,120,0.0,0.0,54,0.00,,SKC,0.00,VWS V14.01,2013-02-17 22:52:00,
2013-02-17 16:55:00,17.2,6.1,29.97,SE,128,0.0,0.0,61,0.00,,SKC,0.00,VWS V14.01,2013-02-17 22:55:00,
2013-02-17 16:57:00,19.3,5.4,30.00,ESE,119,0.0,0.0,54,0.00,,SKC,0.00,VWS V14.01,2013-02-17 22:57:00,
2013-02-17 17:00:00,17.0,5.9,29.98,ESE,107,0.0,0.0,61,0.00,,SKC,0.00,VWS V14.01,2013-02-17 23:00:00,
2013-02-17 17:02:00,19.1,5.2,29.99,ESE,123,0.0,0.0,54,0.00,,SKC,0.00,VWS V14.01,2013-02-17 23:02:00,
2013-02-17 17:05:00,16.8,6.1,29.98,ESE,115,0.0,0.0,62,0.00,,SKC,0.00,VWS V14.01,2013-02-17 23:05:00,
2013-02-17 17:07:00,18.8,4.9,29.99,ESE,119,0.0,0.0,54,0.00,,SKC,0.00,VWS V14.01,2013-02-17 23:07:00,
2013-02-17 17:10:00,16.6,5.9,29.98,ESE,111,0.0,0.0,62,0.00,,SKC,0.00,VWS V14.01,2013-02-17 23:10:00,
2013-02-17 17:13:00,18.6,5.1,29.99,ESE,114,0.0,0.0,55,0.00,,SKC,0.00,VWS V14.01,2013-02-17 23:13:00,
2013-02-17 17:15:00,16.4,5.7,29.98,ESE,115,0.0,0.0,62,0.00,,SKC,0.00,VWS V14.01,2013-02-17 23:15:00,
2013-02-17 17:18:00,18.3,5.2,29.98,SE,134,0.0,0.0,56,0.00,,SKC,0.00,VWS V14.01,2013-02-17 23:18:00,
2013-02-17 17:20:00,16.2,5.5,29.98,SE,131,0.0,0.0,62,0.00,,SKC,0.00,VWS V14.01,2013-02-17 23:20:00,
2013-02-17 17:23:00,18.1,5.1,29.98,SE,125,0.0,0.0,56,0.00,,SKC,0.00,VWS V14.01,2013-02-17 23:23:00,
2013-02-17 17:25:00,16.0,5.6,29.98,ESE,118,0.0,0.0,63,0.00,,SKC,0.00,VWS V14.01,2013-02-17 23:25:00,
2013-02-17 17:28:00,17.9,5.6,29.98,ESE,102,0.0,0.0,58,0.00,,SKC,0.00,VWS V14.01,2013-02-17 23:28:00,
2013-02-17 17:30:00,15.9,5.9,29.97,SE,132,0.0,0.0,64,0.00,,SKC,0.00,VWS V14.01,2013-02-17 23:30:00,
2013-02-17 17:33:00,17.7,5.1,29.98,ESE,113,0.0,0.0,57,0.00,,SKC,0.00,VWS V14.01,2013-02-17 23:33:00,
2013-02-17 17:35:00,15.7,5.7,29.97,ESE,108,0.0,0.0,64,0.00,,SKC,0.00,VWS V14.01,2013-02-17 23:35:00,
2013-02-17 17:38:00,17.5,5.6,29.98,ESE,103,0.0,0.0,59,0.00,,SKC,0.00,VWS V14.01,2013-02-17 23:38:00,
2013-02-17 17:40:00,15.6,5.6,29.97,ESE,115,0.0,0.0,64,0.00,,SKC,0.00,VWS V14.01,2013-02-17 23:40:00,
2013-02-17 17:43:00,17.4,5.2,29.98,ESE,113,0.0,0.0,58,0.00,,SKC,0.00,VWS V14.01,2013-02-17 23:43:00,
2013-02-17 17:45:00,15.4,5.1,29.97,SE,138,0.0,0.0,63,0.00,,SKC,0.00,VWS V14.01,2013-02-17 23:45:00,
2013-02-17 17:48:00,17.4,5.5,29.97,ESE,109,0.0,0.0,59,0.00,,SKC,0.00,VWS V14.01,2013-02-17 23:48:00,
2013-02-17 17:50:00,15.3,5.3,29.97,ESE,122,0.0,0.0,64,0.00,,SKC,0.00,VWS V14.01,2013-02-17 23:50:00,
2013-02-17 17:53:00,17.3,5.8,29.97,ESE,119,0.0,0.0,60,0.00,,SKC,0.00,VWS V14.01,2013-02-17 23:53:00,
2013-02-17 17:55:00,15.1,5.1,29.97,ESE,107,0.0,0.0,64,0.00,,SKC,0.00,VWS V14.01,2013-02-17 23:55:00,
2013-02-17 17:58:00,17.1,6.0,29.97,ESE,117,0.0,0.0,61,0.00,,SKC,0.00,VWS V14.01,2013-02-17 23:58:00,
2013-02-17 18:00:00,15.0,4.7,29.97,ESE,119,0.0,0.0,63,0.00,,SKC,0.00,VWS V14.01,2013-02-18 00:00:00,
2013-02-17 18:03:00,17.0,5.9,29.98,East,96,0.0,0.0,61,0.00,,SKC,0.00,VWS V14.01,2013-02-18 00:03:00,
2013-02-17 18:05:00,14.8,4.5,29.97,ESE,112,0.0,0.0,63,0.00,,SKC,0.00,VWS V14.01,2013-02-18 00:05:00,
2013-02-17 18:08:00,16.8,6.4,29.98,SE,128,0.0,0.0,63,0.00,,SKC,0.00,VWS V14.01,2013-02-18 00:08:00,
2013-02-17 18:10:00,14.7,4.4,29.97,ESE,122,0.0,0.0,63,0.00,,SKC,0.00,VWS V14.01,2013-02-18 00:10:00,
2013-02-17 18:13:00,16.5,5.8,29.98,ESE,103,0.0,0.0,62,0.00,,SKC,0.00,VWS V14.01,2013-02-18 00:13:00,
2013-02-17 18:15:00,14.6,4.3,29.96,SE,129,0.0,0.0,63,0.00,,SKC,0.00,VWS V14.01,2013-02-18 00:15:00,
2013-02-17 18:18:00,16.3,5.9,29.98,ESE,122,0.0,0.0,63,0.00,,SKC,0.00,VWS V14.01,2013-02-18 00:18:00,
2013-02-17 18:20:00,14.5,4.2,29.96,ESE,113,0.0,0.0,63,0.00,,SKC,0.00,VWS V14.01,2013-02-18 00:20:00,
2013-02-17 18:23:00,16.2,5.5,29.98,SE,124,0.0,0.0,62,0.00,,SKC,0.00,VWS V14.01,2013-02-18 00:23:00,
2013-02-17 18:25:00,14.4,4.1,29.96,SE,135,0.0,0.0,63,0.00,,SKC,0.00,VWS V14.01,2013-02-18 00:25:00,
2013-02-17 18:28:00,16.0,5.6,29.98,ESE,117,0.0,0.0,63,0.00,,SKC,0.00,VWS V14.01,2013-02-18 00:28:00,
2013-02-17 18:30:00,14.3,3.7,29.96,ESE,122,0.0,0.0,62,0.00,,SKC,0.00,VWS V14.01,2013-02-18 00:30:00,
2013-02-17 18:33:00,15.8,6.1,29.97,ESE,119,0.0,0.0,65,0.00,,SKC,0.00,VWS V14.01,2013-02-18 00:33:00,
2013-02-17 18:35:00,14.3,4.0,29.96,SE,137,0.0,0.0,63,0.00,,SKC,0.00,VWS V14.01,2013-02-18 00:35:00,
2013-02-17 18:38:00,15.6,5.6,29.97,SE,128,0.0,0.0,64,0.00,,SKC,0.00,VWS V14.01,2013-02-18 00:38:00,
2013-02-17 18:40:00,14.2,4.3,29.96,SE,128,0.0,0.0,64,0.00,,SKC,0.00,VWS V14.01,2013-02-18 00:40:00,
2013-02-17 18:43:00,15.5,5.8,29.97,ESE,115,0.0,0.0,65,0.00,,SKC,0.00,VWS V14.01,2013-02-18 00:43:00,
2013-02-17 18:45:00,14.1,4.2,29.95,ESE,118,0.0,0.0,64,0.00,,SKC,0.00,VWS V14.01,2013-02-18 00:45:00,
2013-02-17 18:48:00,15.4,5.1,29.97,SSE,147,0.0,0.0,63,0.00,,SKC,0.00,VWS V14.01,2013-02-18 00:48:00,
2013-02-17 18:50:00,14.1,4.2,29.95,East,101,0.0,0.0,64,0.00,,SKC,0.00,VWS V14.01,2013-02-18 00:50:00,
2013-02-17 18:53:00,15.2,4.9,29.97,ESE,117,0.0,0.0,63,0.00,,SKC,0.00,VWS V14.01,2013-02-18 00:53:00,
2013-02-17 18:55:00,14.0,4.4,29.95,ESE,115,0.0,0.0,65,0.00,,SKC,0.00,VWS V14.01,2013-02-18 00:55:00,
2013-02-17 18:58:00,15.1,4.8,29.97,ESE,120,0.0,0.0,63,0.00,,SKC,0.00,VWS V14.01,2013-02-18 00:58:00,
2013-02-17 19:00:00,14.0,4.8,29.95,SE,126,0.0,0.0,66,0.00,,SKC,0.00,VWS V14.01,2013-02-18 01:00:00,
2013-02-17 19:03:00,14.9,4.6,29.97,ESE,113,0.0,0.0,63,0.00,,SKC,0.00,VWS V14.01,2013-02-18 01:03:00,
2013-02-17 19:05:00,14.0,4.4,29.95,SE,130,0.0,0.0,65,0.00,,SKC,0.00,VWS V14.01,2013-02-18 01:05:00,
2013-02-17 19:08:00,14.8,4.5,29.97,SE,141,0.0,0.0,63,0.00,,SKC,0.00,VWS V14.01,2013-02-18 01:08:00,
2013-02-17 19:10:00,14.0,4.4,29.95,SE,127,0.0,0.0,65,0.00,,SKC,0.00,VWS V14.01,2013-02-18 01:10:00,
2013-02-17 19:13:00,14.7,4.4,29.97,ESE,113,0.0,0.0,63,0.00,,SKC,0.00,VWS V14.01,2013-02-18 01:13:00,
2013-02-17 19:15:00,13.9,4.7,29.95,ESE,103,0.0,0.0,66,0.00,,SKC,0.00,VWS V14.01,2013-02-18 01:15:00,
2013-02-17 19:18:00,14.5,4.2,29.96,ESE,108,0.0,0.0,63,0.00,,SKC,0.00,VWS V14.01,2013-02-18 01:18:00,
2013-02-17 19:20:00,13.9,4.7,29.95,SSE,155,0.0,0.0,66,0.00,,SKC,0.00,VWS V14.01,2013-02-18 01:20:00,
2013-02-17 19:23:00,14.4,4.1,29.96,ESE,115,0.0,0.0,63,0.00,,SKC,0.00,VWS V14.01,2013-02-18 01:23:00,
2013-02-17 19:25:00,13.9,4.7,29.95,ESE,110,0.0,0.0,66,0.00,,SKC,0.00,VWS V14.01,2013-02-18 01:25:00,
2013-02-17 19:28:00,14.3,4.0,29.96,SE,130,0.0,0.0,63,0.00,,SKC,0.00,VWS V14.01,2013-02-18 01:28:00,
2013-02-17 19:30:00,13.9,4.7,29.94,ESE,120,0.0,0.0,66,0.00,,SKC,0.00,VWS V14.01,2013-02-18 01:30:00,
2013-02-17 19:33:00,14.3,4.0,29.96,SE,138,0.0,0.0,63,0.00,,SKC,0.00,VWS V14.01,2013-02-18 01:33:00,
2013-02-17 19:35:00,13.8,4.9,29.94,ESE,123,0.0,0.0,67,0.00,,SKC,0.00,VWS V14.01,2013-02-18 01:35:00,
2013-02-17 19:38:00,14.3,4.0,29.96,SE,128,0.0,0.0,63,0.00,,SKC,0.00,VWS V14.01,2013-02-18 01:38:00,
2013-02-17 19:40:00,13.8,4.9,29.94,SSE,152,0.0,0.0,67,0.00,,SKC,0.00,VWS V14.01,2013-02-18 01:40:00,
2013-02-17 19:43:00,14.2,4.3,29.96,SE,140,0.0,0.0,64,0.00,,SKC,0.00,VWS V14.01,2013-02-18 01:43:00,
2013-02-17 19:45:00,13.7,5.1,29.94,ESE,102,0.0,0.0,68,0.00,,SKC,0.00,VWS V14.01,2013-02-18 01:45:00,
2013-02-17 19:48:00,14.1,4.2,29.95,SE,130,0.0,0.0,64,0.00,,SKC,0.00,VWS V14.01,2013-02-18 01:48:00,
2013-02-17 19:50:00,13.7,5.1,29.94,ESE,122,0.0,0.0,68,0.00,,SKC,0.00,VWS V14.01,2013-02-18 01:50:00,
2013-02-17 19:53:00,14.1,4.2,29.95,ESE,107,0.0,0.0,64,0.00,,SKC,0.00,VWS V14.01,2013-02-18 01:53:00,
2013-02-17 19:55:00,13.6,5.3,29.94,SE,130,0.0,0.0,69,0.00,,SKC,0.00,VWS V14.01,2013-02-18 01:55:00,
2013-02-17 19:58:00,14.0,4.4,29.95,ESE,110,0.0,0.0,65,0.00,,SKC,0.00,VWS V14.01,2013-02-18 01:58:00,
2013-02-17 20:00:00,13.6,5.0,29.93,SE,136,0.0,0.0,68,0.00,,SKC,0.00,VWS V14.01,2013-02-18 02:00:00,
2013-02-17 20:03:00,14.0,4.4,29.95,ESE,103,0.0,0.0,65,0.00,,SKC,0.00,VWS V14.01,2013-02-18 02:03:00,
2013-02-17 20:05:00,13.5,4.9,29.93,SE,126,0.0,0.0,68,0.00,,SKC,0.00,VWS V14.01,2013-02-18 02:05:00,
2013-02-17 20:08:00,14.0,4.4,29.95,ESE,122,0.0,0.0,65,0.00,,SKC,0.00,VWS V14.01,2013-02-18 02:08:00,
2013-02-17 20:10:00,13.5,5.2,29.93,ESE,111,0.0,0.0,69,0.00,,SKC,0.00,VWS V14.01,2013-02-18 02:10:00,
2013-02-17 20:13:00,13.9,4.7,29.95,SE,146,0.0,0.0,66,0.00,,SKC,0.00,VWS V14.01,2013-02-18 02:13:00,
2013-02-17 20:15:00,13.5,5.2,29.93,SE,126,0.0,0.0,69,0.00,,SKC,0.00,VWS V14.01,2013-02-18 02:15:00,
2013-02-17 20:18:00,13.9,4.7,29.95,ESE,114,0.0,0.0,66,0.00,,SKC,0.00,VWS V14.01,2013-02-18 02:18:00,
2013-02-17 20:20:00,13.5,5.6,29.93,SE,135,0.0,0.0,70,0.00,,SKC,0.00,VWS V14.01,2013-02-18 02:20:00,
2013-02-17 20:23:00,13.9,4.3,29.95,SE,141,0.0,0.0,65,0.00,,SKC,0.00,VWS V14.01,2013-02-18 02:23:00,
2013-02-17 20:25:00,13.5,5.6,29.93,SE,140,0.0,0.0,70,0.00,,SKC,0.00,VWS V14.01,2013-02-18 02:25:00,
2013-02-17 20:28:00,13.9,4.7,29.95,ESE,122,0.0,0.0,66,0.00,,SKC,0.00,VWS V14.01,2013-02-18 02:28:00,
2013-02-17 20:30:00,13.6,5.7,29.93,ESE,106,0.0,0.0,70,0.00,,SKC,0.00,VWS V14.01,2013-02-18 02:30:00,
2013-02-17 20:33:00,13.9,4.7,29.94,SE,128,0.0,0.0,66,0.00,,SKC,0.00,VWS V14.01,2013-02-18 02:33:00,
2013-02-17 20:35:00,13.7,6.1,29.93,ESE,113,0.0,0.0,71,0.00,,SKC,0.00,VWS V14.01,2013-02-18 02:35:00,
2013-02-17 20:38:00,13.8,4.9,29.94,ESE,119,0.0,0.0,67,0.00,,SKC,0.00,VWS V14.01,2013-02-18 02:38:00,
2013-02-17 20:40:00,13.7,6.1,29.93,SE,124,0.0,0.0,71,0.00,,SKC,0.00,VWS V14.01,2013-02-18 02:40:00,
2013-02-17 20:43:00,13.8,4.9,29.94,SE,124,0.0,0.0,67,0.00,,SKC,0.00,VWS V14.01,2013-02-18 02:43:00,
2013-02-17 20:45:00,13.8,6.2,29.92,SE,130,0.0,0.0,71,0.00,,SKC,0.00,VWS V14.01,2013-02-18 02:45:00,
2013-02-17 20:49:00,13.7,5.1,29.94,ESE,107,0.0,0.0,68,0.00,,SKC,0.00,VWS V14.01,2013-02-18 02:49:00,
2013-02-17 20:50:00,13.9,6.2,29.92,ESE,102,0.0,0.0,71,0.00,,SKC,0.00,VWS V14.01,2013-02-18 02:50:00,
2013-02-17 20:54:00,13.6,5.3,29.94,SE,135,0.0,0.0,69,0.00,,SKC,0.00,VWS V14.01,2013-02-18 02:54:00,
2013-02-17 20:55:00,14.0,6.3,29.92,ESE,117,0.0,0.0,71,0.00,,SKC,0.00,VWS V14.01,2013-02-18 02:55:00,
2013-02-17 20:59:00,13.6,5.0,29.94,ESE,119,0.0,0.0,68,0.00,,SKC,0.00,VWS V14.01,2013-02-18 02:59:00,
2013-02-17 21:00:00,14.1,6.4,29.92,SE,137,0.0,0.0,71,0.00,,SKC,0.00,VWS V14.01,2013-02-18 03:00:00,
2013-02-17 21:04:00,13.5,4.9,29.93,ESE,115,0.0,0.0,68,0.00,,SKC,0.00,VWS V14.01,2013-02-18 03:04:00,
2013-02-17 21:05:00,14.2,6.8,29.92,SE,131,0.0,0.0,72,0.00,,SKC,0.00,VWS V14.01,2013-02-18 03:05:00,
2013-02-17 21:09:00,13.5,5.2,29.93,ESE,119,0.0,0.0,69,0.00,,SKC,0.00,VWS V14.01,2013-02-18 03:09:00,
2013-02-17 21:10:00,14.4,6.7,29.92,ESE,109,0.0,0.0,71,0.00,,SKC,0.00,VWS V14.01,2013-02-18 03:10:00,
2013-02-17 21:14:00,13.5,5.2,29.93,SE,134,0.0,0.0,69,0.00,,SKC,0.00,VWS V14.01,2013-02-18 03:14:00,
2013-02-17 21:15:00,14.4,7.0,29.91,SE,137,0.0,0.0,72,0.00,,SKC,0.00,VWS V14.01,2013-02-18 03:15:00,
2013-02-17 21:19:00,13.5,5.2,29.93,ESE,117,0.0,0.0,69,0.00,,SKC,0.00,VWS V14.01,2013-02-18 03:19:00,
2013-02-17 21:20:00,14.6,7.2,29.91,SE,141,0.0,0.0,72,0.00,,SKC,0.00,VWS V14.01,2013-02-18 03:20:00,
2013-02-17 21:24:00,13.5,5.6,29.93,ESE,118,0.0,0.0,70,0.00,,SKC,0.00,VWS V14.01,2013-02-18 03:24:00,
2013-02-17 21:25:00,14.7,7.3,29.91,SSW,198,0.0,0.0,72,0.00,,SKC,0.00,VWS V14.01,2013-02-18 03:25:00,
2013-02-17 21:29:00,13.6,5.3,29.93,ESE,120,0.0,0.0,69,0.00,,SKC,0.00,VWS V14.01,2013-02-18 03:29:00,
2013-02-17 21:30:00,14.8,7.4,29.91,ESE,109,0.0,0.0,72,0.00,,SKC,0.00,VWS V14.01,2013-02-18 03:30:00,
2013-02-17 21:34:00,13.7,6.1,29.93,SE,130,0.0,0.0,71,0.00,,SKC,0.00,VWS V14.01,2013-02-18 03:34:00,
2013-02-17 21:35:00,14.9,7.5,29.91,SE,131,0.0,0.0,72,0.00,,SKC,0.00,VWS V14.01,2013-02-18 03:35:00,
2013-02-17 21:39:00,13.7,6.1,29.93,SSE,161,0.0,0.0,71,0.00,,SKC,0.00,VWS V14.01,2013-02-18 03:39:00,
2013-02-17 21:40:00,15.0,7.6,29.91,ESE,118,0.0,0.0,72,0.00,,SKC,0.00,VWS V14.01,2013-02-18 03:40:00,
2013-02-17 21:44:00,13.8,6.2,29.93,SE,135,0.0,0.0,71,0.00,,SKC,0.00,VWS V14.01,2013-02-18 03:44:00,
2013-02-17 21:45:00,15.2,8.1,29.90,SE,138,0.0,0.0,73,0.00,,SKC,0.00,VWS V14.01,2013-02-18 03:45:00,
2013-02-17 21:49:00,13.9,6.2,29.92,SE,130,0.0,0.0,71,0.00,,SKC,0.00,VWS V14.01,2013-02-18 03:49:00,
2013-02-17 21:50:00,15.3,8.2,29.90,SE,130,0.0,0.0,73,0.00,,SKC,0.00,VWS V14.01,2013-02-18 03:50:00,
2013-02-17 21:54:00,13.9,6.2,29.92,SE,130,0.0,0.0,71,0.00,,SKC,0.00,VWS V14.01,2013-02-18 03:54:00,
2013-02-17 21:55:00,15.5,8.4,29.90,ESE,121,0.0,0.0,73,0.00,,SKC,0.00,VWS V14.01,2013-02-18 03:55:00,
2013-02-17 21:59:00,14.0,6.3,29.92,ESE,119,0.0,0.0,71,0.00,,SKC,0.00,VWS V14.01,2013-02-18 03:59:00,
2013-02-17 22:00:00,15.8,8.7,29.90,SE,128,0.0,0.0,73,0.00,,SKC,0.00,VWS V14.01,2013-02-18 04:00:00,
2013-02-17 22:04:00,14.1,6.4,29.92,ESE,113,0.0,0.0,71,0.00,,SKC,0.00,VWS V14.01,2013-02-18 04:04:00,
2013-02-17 22:05:00,16.0,8.9,29.90,SE,133,0.0,0.0,73,0.00,,SKC,0.00,VWS V14.01,2013-02-18 04:05:00,
2013-02-17 22:09:00,14.3,6.6,29.92,ESE,119,0.0,0.0,71,0.00,,SKC,0.00,VWS V14.01,2013-02-18 04:09:00,
2013-02-17 22:10:00,16.3,9.2,29.90,SE,126,0.0,0.0,73,0.00,,SKC,0.00,VWS V14.01,2013-02-18 04:10:00,
2013-02-17 22:14:00,14.4,6.7,29.92,SE,130,0.0,0.0,71,0.00,,SKC,0.00,VWS V14.01,2013-02-18 04:14:00,
2013-02-17 22:15:00,16.5,9.4,29.89,ESE,119,0.0,0.0,73,0.00,,SKC,0.00,VWS V14.01,2013-02-18 04:15:00,
2013-02-17 22:19:00,14.5,7.1,29.91,ESE,122,0.0,0.0,72,0.00,,SKC,0.00,VWS V14.01,2013-02-18 04:19:00,
2013-02-17 22:20:00,16.7,9.6,29.89,SSE,156,0.0,0.0,73,0.00,,SKC,0.00,VWS V14.01,2013-02-18 04:20:00,
2013-02-17 22:24:00,14.7,7.3,29.91,ESE,106,0.0,0.0,72,0.00,,SKC,0.00,VWS V14.01,2013-02-18 04:24:00,
2013-02-17 22:25:00,16.8,9.7,29.89,ESE,118,0.0,0.0,73,0.00,,SKC,0.00,VWS V14.01,2013-02-18 04:25:00,
2013-02-17 22:29:00,14.7,7.3,29.91,ESE,117,0.0,0.0,72,0.00,,SKC,0.00,VWS V14.01,2013-02-18 04:29:00,
2013-02-17 22:30:00,16.8,9.7,29.89,ESE,113,0.0,0.0,73,0.00,,SKC,0.00,VWS V14.01,2013-02-18 04:30:00,
2013-02-17 22:34:00,14.8,7.4,29.91,SE,128,0.0,0.0,72,0.00,,SKC,0.00,VWS V14.01,2013-02-18 04:34:00,
2013-02-17 22:35:00,17.0,9.9,29.89,ESE,113,0.0,0.0,73,0.00,,SKC,0.00,VWS V14.01,2013-02-18 04:35:00,
2013-02-17 22:39:00,14.9,7.5,29.91,ESE,115,0.0,0.0,72,0.00,,SKC,0.00,VWS V14.01,2013-02-18 04:39:00,
2013-02-17 22:40:00,17.1,9.9,29.89,SE,137,0.0,0.0,73,0.00,,SKC,0.00,VWS V14.01,2013-02-18 04:40:00,
2013-02-17 22:44:00,15.1,8.0,29.91,SE,127,0.0,0.0,73,0.00,,SKC,0.00,VWS V14.01,2013-02-18 04:44:00,
2013-02-17 22:45:00,17.2,10.1,29.88,ESE,110,0.0,0.0,73,0.00,,SKC,0.00,VWS V14.01,2013-02-18 04:45:00,
2013-02-17 22:49:00,15.2,8.1,29.90,SE,127,0.0,0.0,73,0.00,,SKC,0.00,VWS V14.01,2013-02-18 04:49:00,
2013-02-17 22:50:00,17.3,10.1,29.88,SE,125,0.0,0.0,73,0.00,,SKC,0.00,VWS V14.01,2013-02-18 04:50:00,
2013-02-17 22:54:00,15.4,8.3,29.90,ESE,113,0.0,0.0,73,0.00,,SKC,0.00,VWS V14.01,2013-02-18 04:54:00,
2013-02-17 22:55:00,17.4,10.2,29.88,East,101,0.0,0.0,73,0.00,,SKC,0.00,VWS V14.01,2013-02-18 04:55:00,
2013-02-17 22:59:00,15.6,8.5,29.90,SE,137,0.0,0.0,73,0.00,,SKC,0.00,VWS V14.01,2013-02-18 04:59:00,
2013-02-17 23:00:00,15.6,8.5,29.90,ESE,118,0.0,0.0,73,0.00,,SKC,0.00,VWS V14.01,2013-02-18 05:00:00,
2013-02-17 23:05:00,15.9,8.8,29.90,SE,137,0.0,0.0,73,0.00,,SKC,0.00,VWS V14.01,2013-02-18 05:05:00,
2013-02-17 23:10:00,16.2,9.1,29.90,SE,126,0.0,0.0,73,0.00,,SKC,0.00,VWS V14.01,2013-02-18 05:10:00,
2013-02-17 23:15:00,16.4,9.3,29.90,ESE,113,0.0,0.0,73,0.00,,SKC,0.00,VWS V14.01,2013-02-18 05:15:00,
2013-02-17 23:20:00,16.6,9.5,29.89,SE,126,0.0,0.0,73,0.00,,SKC,0.00,VWS V14.01,2013-02-18 05:20:00,
2013-02-17 23:25:00,18.5,11.9,29.86,SE,126,0.0,0.0,75,0.00,,SKC,0.00,VWS V14.01,2013-02-18 05:25:00,
2013-02-17 23:26:00,16.7,9.6,29.89,SE,131,0.0,0.0,73,0.00,,SKC,0.00,VWS V14.01,2013-02-18 05:26:00,
2013-02-17 23:30:00,18.6,12.0,29.85,SSE,148,0.0,0.0,75,0.00,,SKC,0.00,VWS V14.01,2013-02-18 05:30:00,
2013-02-17 23:31:00,16.8,9.7,29.89,SE,141,0.0,0.0,73,0.00,,SKC,0.00,VWS V14.01,2013-02-18 05:31:00,
2013-02-17 23:35:00,18.7,12.1,29.85,SE,141,0.0,0.0,75,0.00,,SKC,0.00,VWS V14.01,2013-02-18 05:35:00,
2013-02-17 23:36:00,17.0,9.9,29.89,SSE,151,0.0,0.0,73,0.00,,SKC,0.00,VWS V14.01,2013-02-18 05:36:00,
2013-02-17 23:40:00,18.9,12.3,29.85,ESE,119,0.0,0.0,75,0.00,,SKC,0.00,VWS V14.01,2013-02-18 05:40:00,
2013-02-17 23:41:00,17.1,9.9,29.89,ESE,122,0.0,0.0,73,0.00,,SKC,0.00,VWS V14.01,2013-02-18 05:41:00,
2013-02-17 23:45:00,19.0,12.4,29.85,ESE,115,0.0,0.0,75,0.00,,SKC,0.00,VWS V14.01,2013-02-18 05:45:00,
2013-02-17 23:46:00,17.1,10.3,29.89,South,176,0.0,0.0,74,0.00,,SKC,0.00,VWS V14.01,2013-02-18 05:46:00,
2013-02-17 23:50:00,19.2,12.6,29.85,ESE,106,0.0,0.0,75,0.00,,SKC,0.00,VWS V14.01,2013-02-18 05:50:00,
2013-02-17 23:51:00,17.3,10.1,29.88,SE,139,0.0,0.0,73,0.00,,SKC,0.00,VWS V14.01,2013-02-18 05:51:00,
2013-02-17 23:55:00,19.4,12.8,29.85,SE,128,0.0,0.0,75,0.00,,SKC,0.00,VWS V14.01,2013-02-18 05:55:00,
2013-02-17 23:56:00,17.4,10.6,29.88,ESE,115,0.0,0.0,74,0.00,,SKC,0.00,VWS V14.01,2013-02-18 05:56:00,